{"data":{"norad_id":62598,"epoch":"2026-09-21T09:19:27.683904Z","epoch_age_seconds":94518,"freshness":"FRESH","line1":"1 62598U 25008M   26264.38851486  .00126324  00000+0  95825-3 0  9997","line2":"2 62598  43.0008  26.4591 0003877 153.6652 206.4413 15.71199270 98062","mean_motion":15.7119927,"eccentricity":0.0003877,"inclination_deg":43.0008,"raan_deg":26.4591,"arg_perigee_deg":153.6652,"mean_anomaly_deg":206.4413,"bstar":0.00095825,"rev_number":9806,"period_min":91.649737082681,"perigee_km":352.85777753096,"apogee_km":358.07901515528,"semimajor_km":6733.6053963431,"source":"CELESTRAK","updated_at":"2026-09-22T09:00:49.632332Z"}}